User: anonymous   Login
Location: Unspecified
(0.0000°N, 0.0000°E)
Time: 11:21:05
(UTC+00:00)
Language:

GALILEO-FM4 - Orbit

View from above orbital plane
View from above orbital plane
View from above satellite
View from above satellite

Ground track
Ground track

The orbit data is extracted from the following two-line orbital elements,

1 38858U 12055B   22273.25997723  .00000042  00000-0  00000-0 0  9991
2 38858  55.1648 138.8185 0000811 139.2508 220.8590  1.70473962 61894
Epoch (UTC): 30 September 2022 06:14:22
Eccentricity: 0.0000811
inclination: 55.1648°
perigee height: 23219 km
apogee height: 23224 km
right ascension of ascending node: 138.8185°
argument of perigee: 139.2508°
revolutions per day: 1.70473962
mean anomaly at epoch: 220.8590°
orbit number at epoch: 6189

The dashed part of the orbit path shows where the satellite is in the earth's shadow,  

DLR